Home > Time Zones > World Clock > Weather > Peru > Lima > Past weeks

Flag for Peru Weather past 2 weeks in Lima, Lima, Peru

Now
64 °F

Fog.


Feels Like: 64 °F
Forecast: 65 / 74 °F
Wind: 5 mph from Southwest

Location: Lima-Callao / Aerop. Internacional Jorgechavez


UV Index: 7 (High)

Visibility: 3 mi


Pressure: 29.92 "Hg

Humidity: 94%

Dew point: 63 °F

Location of LimaLocation

Historic Weather in Lima

°F

Lima temperature yesterday

Maximum temperature yesterday: 68 °F (at 11:00 AM)
Minimum temperature yesterday: 63 °F (at 2:00 AM)
Average temperature yesterday: 65 °F

Past Weeks' High & Low Weather Summary

 TemperatureHumidityPressure
High75 °F (Apr 6, 1:00 PM)100% (Apr 9, 6:00 AM)30.01 "Hg (Apr 9, 6:00 AM)
Low63 °F (Apr 7, 6:00 AM)69% (Apr 6, 12:00 PM)29.77 "Hg (Apr 18, 4:00 PM)
Average67 °F86%29.89 "Hg
* Reported Apr 5 11:00 PM — Apr 20 11:00 PM, Lima, Weather by CustomWeather, © 2014

Note: Actual official high and low records may vary slightly from our data, if they occured in-between our weather recording intervals... More about our weather records

Advertising

Historic Weather Conditions — Data for Previous 24 hours

 ConditionsComfort  
Time TempWeatherWind HumidityBarometerVisibility
11:00 PM
Apr 20
64 °FFog.5 mph94%29.92 "Hg3 mi
10:10 PM64 °FFog.9 mph94%29.92 "Hg3 mi
10:00 PM64 °FPassing clouds.8 mph94%29.92 "Hg4 mi
9:00 PM66 °FPassing clouds.8 mph88%29.92 "Hg5 mi
8:00 PM64 °FLow clouds.10 mph94%29.92 "Hg5 mi
7:00 PM66 °FPassing clouds.10 mph88%29.89 "HgN/A
6:00 PM66 °FPassing clouds.9 mph88%29.89 "Hg5 mi
5:00 PM66 °FLow clouds.8 mph88%29.89 "Hg5 mi
4:00 PM66 °FLow clouds.5 mph88%29.89 "Hg5 mi
3:00 PM66 °FLow clouds.7 mph88%29.89 "Hg5 mi
2:00 PM66 °FPartly sunny.8 mph88%29.89 "Hg4 mi
1:00 PM68 °FPartly sunny.8 mph83%29.92 "Hg4 mi
12:00 PM68 °FScattered clouds.10 mph83%29.92 "Hg4 mi
11:00 AM68 °FFog.8 mph83%29.95 "Hg3 mi
10:00 AM64 °FFog.7 mph94%29.95 "Hg2 mi
9:00 AM64 °FFog.3 mph94%29.95 "Hg2 mi
8:00 AM63 °FFog.3 mph100%29.95 "Hg2 mi
7:00 AM63 °FFog.3 mph100%29.92 "Hg1 mi
6:00 AM63 °FFog.3 mph100%29.89 "Hg1 mi
5:00 AM63 °FFog.3 mph100%29.89 "HgN/A
4:00 AM63 °FFog.3 mph100%29.89 "Hg1 mi
3:00 AM63 °FFog.3 mph100%29.89 "HgN/A
2:00 AM63 °FFog.5 mph100%29.89 "Hg1 mi
1:00 AM64 °FFog.5 mph94%29.89 "Hg1 mi
12:00 AM64 °FFog.5 mph94%29.89 "Hg2 mi
Weather by CustomWeather, © 2014

See weather overview